TimeCDT,TemperatureF,Dew PointF,Humidity,Sea Level PressureIn,VisibilityMPH,Wind Direction,Wind SpeedMPH,Gust SpeedMPH,PrecipitationIn,Events,Conditions,WindDirDegrees,DateUTC
12:58 AM,43.9,37.8,79,29.95,10.0,ESE,4.6,-,N/A,,Overcast,110,2013-10-22 05:58:00
1:58 AM,39.2,37.0,92,29.92,10.0,SE,4.6,-,N/A,,Scattered Clouds,130,2013-10-22 06:58:00
2:58 AM,42.3,37.8,84,29.91,10.0,Calm,Calm,-,N/A,,Overcast,0,2013-10-22 07:58:00
3:58 AM,42.8,38.3,84,29.89,10.0,West,2.3,-,N/A,,Scattered Clouds,270,2013-10-22 08:58:00
4:02 AM,44.6,37.4,76,29.87,10.0,West,3.5,-,N/A,,Scattered Clouds,270,2013-10-22 09:02:00
4:14 AM,44.6,39.2,81,29.87,10.0,NW,3.5,-,N/A,,Scattered Clouds,320,2013-10-22 09:14:00
4:58 AM,40.1,37.8,91,29.88,10.0,WNW,3.5,-,0.00,,Mostly Cloudy,290,2013-10-22 09:58:00
5:31 AM,41.0,37.4,87,29.86,10.0,West,4.6,-,N/A,,Scattered Clouds,270,2013-10-22 10:31:00
5:45 AM,39.2,37.4,93,29.86,10.0,West,2.3,-,N/A,,Partly Cloudy,270,2013-10-22 10:45:00
5:58 AM,38.3,36.5,93,29.89,10.0,WNW,3.5,-,0.00,,Scattered Clouds,300,2013-10-22 10:58:00
6:58 AM,36.0,35.4,98,29.91,10.0,NW,5.8,-,N/A,,Clear,310,2013-10-22 11:58:00
7:43 AM,37.4,37.4,100,29.87,10.0,NW,3.5,-,N/A,,Mostly Cloudy,310,2013-10-22 12:43:00
7:53 AM,39.2,37.4,93,29.88,10.0,WNW,5.8,-,N/A,,Mostly Cloudy,300,2013-10-22 12:53:00
7:58 AM,39.0,38.1,97,29.91,10.0,WNW,4.6,-,N/A,,Mostly Cloudy,290,2013-10-22 12:58:00
8:58 AM,44.4,39.9,84,29.93,10.0,NW,8.1,-,N/A,,Overcast,310,2013-10-22 13:58:00
9:58 AM,46.4,41.4,83,29.96,10.0,NW,8.1,-,N/A,,Overcast,310,2013-10-22 14:58:00
10:23 AM,46.4,39.2,76,29.95,10.0,NW,9.2,-,N/A,,Overcast,320,2013-10-22 15:23:00
10:43 AM,48.2,41.0,76,29.96,10.0,NW,11.5,-,N/A,,Overcast,310,2013-10-22 15:43:00
10:53 AM,48.2,41.0,76,29.96,10.0,NW,9.2,-,N/A,,Overcast,320,2013-10-22 15:53:00
10:58 AM,47.8,41.7,79,29.99,10.0,NW,12.7,-,N/A,,Overcast,310,2013-10-22 15:58:00
11:08 AM,48.2,41.0,76,29.96,10.0,NNW,8.1,19.6,N/A,,Overcast,330,2013-10-22 16:08:00
11:38 AM,48.2,41.0,76,29.97,10.0,NW,13.8,19.6,N/A,,Overcast,310,2013-10-22 16:38:00
11:58 AM,49.5,41.4,74,29.99,10.0,NW,16.1,23.0,N/A,,Overcast,310,2013-10-22 16:58:00
12:03 PM,48.2,41.0,76,29.98,10.0,NW,15.0,20.7,N/A,,Overcast,310,2013-10-22 17:03:00
12:58 PM,47.8,39.4,72,30.03,10.0,NW,15.0,23.0,N/A,,Mostly Cloudy,310,2013-10-22 17:58:00
1:58 PM,49.3,37.8,65,30.04,10.0,NW,17.3,21.9,N/A,,Mostly Cloudy,310,2013-10-22 18:58:00
2:58 PM,46.4,36.3,68,30.05,10.0,NNW,8.1,20.7,N/A,,Overcast,340,2013-10-22 19:58:00
3:58 PM,45.5,35.6,68,30.07,10.0,NNW,11.5,-,N/A,,Overcast,330,2013-10-22 20:58:00
4:58 PM,44.6,35.2,70,30.09,10.0,North,6.9,-,N/A,,Overcast,350,2013-10-22 21:58:00
5:58 PM,42.8,33.8,70,30.10,10.0,NNW,9.2,-,N/A,,Overcast,330,2013-10-22 22:58:00
6:33 PM,42.8,33.8,70,30.08,10.0,North,6.9,-,N/A,,Overcast,350,2013-10-22 23:33:00
6:58 PM,42.6,34.3,73,30.13,10.0,NNW,8.1,-,N/A,,Overcast,340,2013-10-22 23:58:00
7:58 PM,42.1,31.8,67,30.14,10.0,NNW,11.5,18.4,N/A,,Overcast,340,2013-10-23 00:58:00
8:13 PM,42.8,32.0,66,30.12,10.0,NNW,12.7,-,N/A,,Overcast,340,2013-10-23 01:13:00
8:58 PM,41.7,31.3,66,30.14,10.0,NNW,9.2,-,N/A,,Overcast,330,2013-10-23 01:58:00
9:58 PM,38.1,31.6,77,30.14,10.0,NNW,5.8,-,N/A,,Mostly Cloudy,340,2013-10-23 02:58:00
10:58 PM,40.5,32.5,73,30.14,10.0,NNW,6.9,-,N/A,,Overcast,340,2013-10-23 03:58:00
11:58 PM,40.1,32.9,75,30.14,10.0,North,3.5,-,N/A,,Overcast,10,2013-10-23 04:58:00